Location: Baturyn
(53.6332°N, 113.5041°W)
Time: 10:47:39
(UTC+00:00)

ISS - Visible Passes

Search period start: 05 December 2021 00:00
Search period end: 15 December 2021 00:00
Orbit: 417 x 422 km, 51.6° (Epoch: 05 December)

Date Brightness Start Highest point End Pass type
(mag) Time Alt. Az. Time Alt. Az. Time Alt. Az.
05 Dec -2.5 00:43:09 10° W 00:46:21 40° SSW 00:49:34 10° SE visible
05 Dec -0.9 02:20:50 10° WSW 02:22:31 13° SW 02:22:59 13° SSW visible
05 Dec -2.7 23:55:45 10° W 23:59:03 48° SSW 00:02:20 10° ESE visible
06 Dec -1.1 01:32:58 10° W 01:35:21 18° SW 01:37:46 10° SSE visible
07 Dec -1.4 00:45:20 10° W 00:48:09 24° SSW 00:50:57 10° SSE visible
07 Dec -1.8 23:57:50 10° W 00:00:53 31° SSW 00:03:56 10° SE visible
09 Dec -0.5 00:48:06 10° WSW 00:49:46 13° SW 00:51:25 10° S visible
10 Dec -0.7 00:00:10 10° W 00:02:33 18° SW 00:04:57 10° S visible
